Location: Newark
(41.6500°N, 71.4833°W)
Time: 01:10:05
(UTC+00:00)

A-11 Canister half - Pass Details

Date: 25 January 2020
Orbit: 1517 x 1683 km, 47.2° (Epoch: 19 February)

Event Time Altitude Azimuth Distance (km) Brightness Sun altitude
Rises 02:33:33 0° 199° (SSW) 4,774 - -52.0°
Reaches altitude 10° 02:37:07 10° 189° (S) 3,767 - -52.6°
Maximum altitude 02:45:03 31° 132° (SE) 2,451 - -53.9°
Drops below altitude 10° 02:52:49 10° 75° (ENE) 3,694 - -55.2°
Sets 02:56:16 0° 65° (ENE) 4,669 - -55.7°
